Location: Bottens
(46.6171°N, 6.6605°E)
Time: 09:53:23
(UTC+00:00)

Cosmos 1825 - Pass Details

Date: 27 October 2021
Orbit: 501 x 504 km, 82.5° (Epoch: 28 November)

Event Time Altitude Azimuth Distance (km) Brightness Sun altitude
Rises 16:59:08 0° 11° (N) 2,609 5.5 -6.4°
Reaches altitude 10° 17:02:46 10° 48° (NE) 1,718 4.3 -7.0°
Maximum altitude 17:03:54 11° 65° (ENE) 1,647 4.1 -7.2°
Drops below altitude 10° 17:05:02 10° 83° (E) 1,714 4.1 -7.4°
Enters shadow 17:05:31 - 90° (E) 1,781 4.3 -7.5°
